STARLINK-32877 (62960 NORAD) Tracking and Keplerian Element Data

This shows tracking and keplerian element data for the satellite.

Feedback or suggestion? Click here.




ElementValue
Catalog62960
NameSTARLINK-32877
Epoch Orbit595
Epoch Day354.25003472
Epoch Year2025
RAAN241.7188
Inclination53.1574
Eccentricity0.000125
Argument of Perigee87.182
Mean Anonmoly185.5986
Mean Motion15.30184844
Decay Rate5.054E-05
L11 62960U 25029N 25354.25003472 .00005054 00000+0 18273-3 0 9990
L22 62960 53.1574 241.7188 0001250 87.1820 185.5986 15.30184844 5954



Live tracking and technical data element details for STARLINK-32877 (NORAD 62960). STARLINK-32877 can be tracked NOW for your location showing map with azimuth and elevation plus other details from your city location.







IsCatalogInMostPopularTable: catalog: 62960, numindb: 1
Update: records affected: 1



GetName: 62960 STARLINK-32877

Hit Count: updated at: Sat, 07 Feb 2026 09:01:07 GMT